Date String (YYYY-MM-DD hh:mm:ss) UTC,Instrument flags,Ambient pressure (hPa),Sample flow (lpm),Bypass flow (lpm),Sample temperature (°C),Ambient temperature (°C),ASC tube jacket temperature (°C),LED temperature (°C),Box temperature (°C),Sample RH (%),Span deviation,Mass concentration (μg/m³),Mass concentration (μg/m³),Mass concentration (μg/m³)
DateTimeUTC,F1_M11,P_M11,Q1_M11,Q2_M11,T1_M11,T2_M11,T3_M11,T4_M11,T5_M11,U1_M11,ZSPAN_M11,X0_M11,X2_M11,X1_M11
2022-08-05 17:00:00,,0826.7,4.99,0.00,30.6,28.0,00.0,38.9,31.7,34.3,0000.5,0033.89,0010.59,0007.95
2022-08-05 17:01:00,,0826.7,5.01,0.00,30.7,28.1,00.0,38.9,31.7,33.6,0000.6,0034.60,0010.69,0007.94
2022-08-05 17:02:00,,0826.7,4.99,0.00,30.7,27.7,00.0,38.9,31.7,33.4,0000.5,0034.77,0010.76,0007.95
2022-08-05 17:03:00,,0826.7,5.01,0.00,30.6,27.4,00.0,38.9,31.6,34.1,0000.6,0034.45,0010.72,0007.94
2022-08-05 17:04:00,,0826.7,4.99,0.00,30.6,27.4,00.0,38.9,31.6,34.0,0000.5,0035.81,0010.75,0007.94
2022-08-05 17:05:00,,0826.7,4.99,0.00,30.5,27.5,00.0,38.9,31.5,33.6,0000.6,0036.21,0010.71,0007.94
2022-08-05 17:06:00,,0826.6,5.01,0.00,30.4,27.7,00.0,38.9,31.5,34.1,0000.8,0033.89,0010.55,0007.92
2022-08-05 17:07:00,,0826.7,5.00,0.00,30.4,27.9,00.0,38.9,31.6,34.9,0001.1,0031.40,0010.36,0007.90
2022-08-05 17:08:00,,0826.7,4.99,0.00,30.5,28.1,00.0,38.9,31.8,34.6,0001.2,0029.65,0010.30,0007.89
2022-08-05 17:09:00,,0826.7,4.99,0.00,30.6,28.0,00.0,38.9,31.8,33.8,0001.2,0027.44,0010.27,0007.91
2022-08-05 17:10:00,,0826.6,5.01,0.00,30.6,27.6,00.0,38.9,31.7,34.5,0001.2,0027.28,0010.30,0007.89
2022-08-05 17:11:00,,0826.7,5.00,0.00,30.6,27.5,00.0,38.9,31.6,34.9,0001.0,0028.22,0010.29,0007.89
2022-08-05 17:12:00,,0826.7,5.00,0.00,30.5,27.6,00.0,38.9,31.6,35.0,0001.2,0027.56,0010.32,0007.90
2022-08-05 17:13:00,,0826.7,5.01,0.00,30.6,27.7,00.0,38.9,31.7,35.1,0001.6,0027.86,0010.32,0007.92
2022-08-05 17:14:00,,0826.7,5.00,0.00,30.8,27.9,00.0,38.9,31.8,34.2,0002.2,0029.32,0010.33,0007.92
2022-08-05 17:15:00,,0826.7,4.99,0.00,31.0,28.0,00.0,38.9,31.9,32.6,0002.4,0027.34,0010.24,0007.91
2022-08-05 17:16:00,,0826.7,5.01,0.00,31.0,27.6,00.0,38.9,31.8,31.9,0002.4,0026.17,0010.14,0007.89
2022-08-05 17:17:00,,0826.6,4.99,0.00,31.0,27.2,00.0,38.9,31.7,32.6,0002.6,0025.07,0010.05,0007.88
2022-08-05 17:18:00,,0826.7,5.01,0.00,31.0,27.1,00.0,38.9,31.7,33.0,0002.5,0024.89,0010.03,0007.87
2022-08-05 17:19:00,,0826.6,5.00,0.00,30.9,27.2,00.0,38.9,31.5,32.5,0002.9,0025.40,0009.96,0007.87
2022-08-05 17:20:00,,0826.7,5.00,0.00,30.8,27.4,00.0,38.9,31.5,31.2,0002.5,0025.10,0009.87,0007.82
2022-08-05 17:21:00,,0826.7,4.99,0.00,30.8,27.7,00.0,39.0,31.6,29.4,0002.7,0024.83,0009.79,0007.78
2022-08-05 17:22:00,,0826.7,5.01,0.00,30.8,27.9,00.0,39.0,31.7,29.4,0002.9,0025.59,0009.81,0007.73
2022-08-05 17:23:00,,0826.6,5.00,0.00,30.8,28.0,00.0,39.0,31.8,30.3,0002.8,0026.86,0009.69,0007.66
2022-08-05 17:24:00,,0826.7,5.01,0.00,30.7,27.7,00.0,39.0,31.7,30.6,0002.5,0026.24,0009.58,0007.60
2022-08-05 17:25:00,,0826.7,4.99,0.00,30.6,27.5,00.0,39.0,31.6,30.5,0002.1,0024.89,0009.53,0007.57
2022-08-05 17:26:00,,0826.7,5.02,0.00,30.6,27.5,00.0,39.0,31.6,30.4,0001.9,0025.39,0009.52,0007.53
2022-08-05 17:27:00,,0826.7,4.99,0.00,30.5,27.6,00.0,38.9,31.5,31.0,0001.8,0026.11,0009.54,0007.49
2022-08-05 17:28:00,,0826.7,5.00,0.00,30.4,27.8,00.0,38.9,31.6,32.5,0001.6,0025.90,0009.59,0007.47
2022-08-05 17:29:00,,0826.7,4.99,0.00,30.4,27.9,00.0,38.9,31.6,32.6,0001.3,0026.30,0009.57,0007.45
2022-08-05 17:30:00,,0826.7,5.01,0.00,30.4,27.7,00.0,38.9,31.5,32.7,0001.7,0025.29,0009.55,0007.44
2022-08-05 17:31:00,,0826.7,5.00,0.00,30.3,27.3,00.0,38.9,31.5,30.3,0001.9,0025.37,0009.56,0007.46
2022-08-05 17:32:00,,0826.7,5.00,0.00,30.3,27.3,00.0,38.8,31.5,30.3,0001.9,0024.81,0009.53,0007.47
2022-08-05 17:33:00,,0826.6,5.01,0.00,30.2,27.4,00.0,38.8,31.5,30.5,0001.5,0023.63,0009.52,0007.48
2022-08-05 17:34:00,,0826.7,4.99,0.00,30.2,27.6,00.0,38.8,31.5,29.9,0001.7,0022.57,0009.55,0007.47
2022-08-05 17:35:00,,0826.7,5.01,0.00,30.1,27.8,00.0,38.8,31.5,28.9,0001.8,0022.30,0009.60,0007.46
2022-08-05 17:36:00,,0826.6,5.00,0.00,30.2,27.9,00.0,38.8,31.5,30.5,0001.8,0021.55,0009.61,0007.44
2022-08-05 17:37:00,,0826.7,5.01,0.00,30.1,27.7,00.0,38.7,31.5,31.1,0001.9,0021.42,0009.65,0007.45
2022-08-05 17:38:00,,0826.7,4.99,0.00,30.1,27.3,00.0,38.7,31.4,31.8,0002.1,0021.19,0009.65,0007.48
2022-08-05 17:39:00,,0826.7,5.00,0.00,30.0,27.2,00.0,38.7,31.4,33.2,0002.3,0021.62,0009.66,0007.50
2022-08-05 17:40:00,,0826.7,5.01,0.00,30.0,27.3,00.0,38.6,31.3,33.5,0002.2,0020.98,0009.77,0007.51
2022-08-05 17:41:00,,0826.7,4.99,0.00,29.9,27.5,00.0,38.6,31.3,33.3,0002.0,0021.28,0009.85,0007.53
2022-08-05 17:42:00,,0826.7,5.01,0.00,29.9,27.7,00.0,38.6,31.4,32.9,0002.1,0022.45,0009.95,0007.54
2022-08-05 17:43:00,,0826.7,5.00,0.00,29.9,27.9,00.0,38.6,31.5,33.3,0002.3,0023.36,0010.02,0007.58
2022-08-05 17:44:00,,0826.7,4.99,0.00,29.9,27.6,00.0,38.6,31.4,33.0,0002.4,0023.69,0010.04,0007.62
2022-08-05 17:45:00,,0826.7,5.01,0.00,29.9,27.2,00.0,38.5,31.4,34.0,0002.2,0023.25,0010.13,0007.67
2022-08-05 17:46:00,,0826.7,4.99,0.00,29.8,27.2,00.0,38.5,31.4,34.7,0001.8,0023.44,0010.17,0007.73
2022-08-05 17:47:00,,0826.7,5.01,0.00,29.8,27.3,00.0,38.5,31.3,34.8,0002.1,0023.48,0010.23,0007.80
2022-08-05 17:48:00,,0826.6,4.99,0.00,29.7,27.5,00.0,38.5,31.3,34.8,0002.1,0024.20,0010.32,0007.85
2022-08-05 17:49:00,,0826.5,5.01,0.00,29.8,27.7,00.0,38.5,31.4,35.3,0002.0,0024.62,0010.38,0007.89
2022-08-05 17:50:00,,0826.6,5.01,0.00,30.1,27.8,00.0,38.5,31.6,34.6,0001.7,0024.21,0010.35,0007.89
2022-08-05 17:51:00,,0826.5,4.99,0.00,30.3,27.5,00.0,38.4,31.5,33.7,0001.6,0025.02,0010.33,0007.91
2022-08-05 17:52:00,,0826.5,5.00,0.00,30.3,27.2,00.0,38.4,31.5,33.4,0002.0,0025.22,0010.39,0007.94
2022-08-05 17:53:00,,0826.5,4.99,0.00,30.3,27.2,00.0,38.4,31.4,33.2,0002.3,0024.59,0010.42,0007.98
2022-08-05 17:54:00,,0826.5,5.00,0.00,30.3,27.3,00.0,38.5,31.3,33.0,0002.1,0023.93,0010.45,0008.01
2022-08-05 17:55:00,,0826.5,5.00,0.00,30.2,27.5,00.0,38.5,31.4,33.1,0002.2,0023.34,0010.53,0008.06
2022-08-05 17:56:00,,0826.5,5.01,0.00,30.2,27.7,00.0,38.5,31.4,32.8,0002.4,0024.12,0010.56,0008.10
2022-08-05 17:57:00,,0826.5,5.00,0.00,30.3,27.8,00.0,38.6,31.5,32.6,0002.7,0024.38,0010.65,0008.18
2022-08-05 17:58:00,,0826.5,5.00,0.00,30.2,27.5,00.0,38.6,31.4,32.6,0002.5,0026.19,0010.73,0008.22
2022-08-05 17:59:00,,0826.5,4.99,0.00,30.2,27.2,00.0,38.6,31.3,33.5,0002.2,0026.83,0010.72,0008.24
